SHARC (42712 NORAD) Tracking and Keplerian Element Data

This shows tracking and keplerian element data for the satellite.

Feedback or suggestion? Click here.




ElementValue
Catalog42712
NameSHARC
Epoch Orbit8554
Epoch Day320.20240374
Epoch Year2018
RAAN311.5039
Inclination51.6348
Eccentricity0.0004253
Argument of Perigee54.5824
Mean Anonmoly305.5571
Mean Motion15.72920569
Decay Rate0.00037019
L11 42712U 98067LT 18320.20240374 .00037019 00000-0 26967-3 0 9995
L22 42712 51.6348 311.5039 0004253 54.5824 305.5571 15.72920569 85543

Live tracking and technical data element details for SHARC (NORAD 42712). SHARC can be tracked NOW for your location showing map with azimuth and elevation plus other details from your city location.

Track the satellite on the map from your city or location and see movement details for azimuth, elevation, latitude, longitude, range, height, and movement on the map or in text.







IsCatalogInMostPopularTable: catalog: 42712, numindb: 139
Update: records affected: 1



GetName: 42712 SHARC

Hit Count: updated at: Fri, 16 Nov 2018 12:14:20 GMT